CW2265 Weather Reports


Display with metric or nautical units.
time (UTC)temp
F
wind
direction
speed
MPH
gust
MPH
rain 1hr
in
rain 24hr
in
rain mn
in
humidity
%
barometer
mb
20170330202504 39 119 3.0 5.0 0.00 0.00 0.00 84 1016.4
20170330202006 39 119 3.0 8.0 0.00 0.00 0.00 84 1016.4
20170330201505 39 117 3.0 5.0 0.00 0.00 0.00 84 1016.4
20170330201005 39 119 3.0 7.0 0.00 0.00 0.00 83 1016.5
20170330200504 39 120 5.0 9.0 0.00 0.00 0.00 83 1016.5
20170330200004 39 128 3.0 12.0 0.00 0.00 0.00 82 1016.5
20170330195504 39 125 4.0 12.0 0.00 0.00 0.00 81 1017.6
20170330195005 40 124 5.0 10.0 0.00 0.00 0.00 80 1017.6
20170330194504 40 121 3.0 8.0 0.00 0.00 0.00 79 1017.6
20170330194005 40 121 5.0 10.0 0.00 0.00 0.00 78 1017.6
20170330193505 40 110 2.0 8.0 0.00 0.00 0.00 77 1017.6
20170330193005 40 105 4.0 9.0 0.00 0.00 0.00 76 1017.6
20170330192504 40 114 3.0 8.0 0.00 0.00 0.00 78 1017.6
20170330192005 40 123 6.0 12.0 0.00 0.00 0.00 77 1017.6
20170330191505 40 124 6.0 13.0 0.00 0.00 0.00 77 1017.6
20170330191005 40 115 4.0 9.0 0.00 0.00 0.00 78 1017.6
20170330190005 40 103 5.0 9.0 0.00 0.00 0.00 78 1017.6
20170330185504 39 114 3.0 9.0 0.00 0.00 0.00 79 1017.6
20170330185005 39 118 5.0 12.0 0.00 0.00 0.00 77 1018.5
20170330184504 39 128 5.0 8.0 0.00 0.00 0.00 76 1018.5
20170330184005 39 131 5.0 12.0 0.00 0.00 0.00 74 1018.5
20170330183504 39 119 5.0 12.0 0.00 0.00 0.00 74 1018.5
20170330183005 40 123 6.0 13.0 0.00 0.00 0.00 73 1018.7
20170330182504 40 127 7.0 12.0 0.00 0.00 0.00 70 1019.1
20170330182005 41 118 6.0 10.0 0.00 0.00 0.00 68 1019.1
20170330181504 41 110 3.0 9.0 0.00 0.00 0.00 68 1019.3
20170330181004 41 46 2.0 3.0 0.00 0.00 0.00 72 1019.3
20170330180504 41 46 2.0 7.0 0.00 0.00 0.00 72 1019.3
20170330180005 41 47 1.0 6.0 0.00 0.00 0.00 73 1019.3
20170330175504 41 60 3.0 7.0 0.00 0.00 0.00 73 1019.3
20170330175004 41 40 3.0 5.0 0.00 0.00 0.00 73 1019.6
20170330174504 41 40 3.0 7.0 0.00 0.00 0.00 72 1019.6
20170330174005 41 50 3.0 7.0 0.00 0.00 0.00 71 1019.4
20170330173504 41 46 3.0 8.0 0.00 0.00 0.00 63 1019.5
20170330173005 41 74 3.0 6.0 0.00 0.00 0.00 66 1019.5
20170330172504 42 46 2.0 7.0 0.00 0.00 0.00 67 1019.5
20170330172004 41 75 3.0 9.0 0.00 0.00 0.00 56 1019.5
20170330171504 41 65 5.0 7.0 0.00 0.00 0.00 56 1020.0
20170330171004 41 58 3.0 5.0 0.00 0.00 0.00 57 1020.0
20170330170504 41 59 5.0 8.0 0.00 0.00 0.00 56 1020.0
20170330170004 41 80 2.0 7.0 0.00 0.00 0.00 56 1019.8
20170330165504 41 86 3.0 7.0 0.00 0.00 0.00 56 1019.8
20170330165005 41 69 3.0 9.0 0.00 0.00 0.00 57 1020.0
20170330164504 41 69 5.0 7.0 0.00 0.00 0.00 57 1020.2
20170330162005 41 89 4.0 8.0 0.00 0.00 0.00 57 1020.2
20170330161504 41 98 6.0 12.0 0.00 0.00 0.00 57 1020.2
20170330161005 41 77 5.0 10.0 0.00 0.00 0.00 58 1020.5
20170330160505 41 98 5.0 7.0 0.00 0.00 0.00 58 1020.5
20170330155504 41 55 3.0 7.0 0.00 0.00 0.00 58 1020.5
20170330155005 41 73 5.0 10.0 0.00 0.00 0.00 58 1021.2
20170330154504 42 62 5.0 9.0 0.00 0.00 0.00 58 1021.2
20170330154005 42 82 3.0 7.0 0.00 0.00 0.00 57 1021.2
20170330153505 42 77 3.0 7.0 0.00 0.00 0.00 58 1021.3
20170330153005 42 104 3.0 3.0 0.00 0.00 0.00 58 1021.7
20170330152505 42 105 2.0 5.0 0.00 0.00 0.00 59 1021.8
20170330152005 42 105 3.0 8.0 0.00 0.00 0.00 58 1022.3
20170330151505 41 82 3.0 6.0 0.00 0.00 0.00 58 1022.3
20170330151005 41 82 3.0 8.0 0.00 0.00 0.00 59 1022.3
20170330150505 41 66 2.0 8.0 0.00 0.00 0.00 58 1022.3
20170330150004 41 56 3.0 5.0 0.00 0.00 0.00 59 1022.3
20170330145004 41 55 2.0 6.0 0.00 0.00 0.00 59 1021.3
20170330144504 41 56 2.0 8.0 0.00 0.00 0.00 61 1021.3
20170330144005 41 79 5.0 8.0 0.00 0.00 0.00 59 1021.3
20170330143504 41 86 4.0 9.0 0.00 0.00 0.00 60 1021.3
20170330142505 41 84 5.0 9.0 0.00 0.00 0.00 60 1021.3
20170330142004 41 63 5.0 9.0 0.00 0.00 0.00 60 1021.1
20170330141504 41 63 3.0 8.0 0.00 0.00 0.00 61 1021.1
20170330141004 40 82 4.0 9.0 0.00 0.00 0.00 61 1021.1
20170330135004 40 119 5.0 8.0 0.00 0.00 0.00 62 1021.3
20170330134504 40 112 5.0 9.0 0.00 0.00 0.00 62 1021.2
20170330134004 40 92 5.0 8.0 0.00 0.00 0.00 62 1021.2
20170330133504 40 115 5.0 9.0 0.00 0.00 0.00 62 1021.2
20170330133004 40 116 5.0 9.0 0.00 0.00 0.00 63 1021.2
20170330132505 40 80 5.0 9.0 0.00 0.00 0.00 64 1021.2
20170330132005 39 107 5.0 8.0 0.00 0.00 0.00 65 1021.2
20170330131504 39 104 5.0 10.0 0.00 0.00 0.00 65 1021.6
20170330131005 39 96 5.0 8.0 0.00 0.00 0.00 65 1022.3
20170330130505 39 97 5.0 8.0 0.00 0.00 0.00 65 1022.3
20170330130005 39 96 5.0 8.0 0.00 0.00 0.00 66 1022.2
20170330125505 39 98 5.0 7.0 0.00 0.00 0.00 67 1022.3
20170330125005 38 88 5.0 8.0 0.00 0.00 0.00 67 1022.3
20170330124005 38 95 5.0 7.0 0.00 0.00 0.00 69 1022.3
20170330120005 38 94 2.0 7.0 0.00 0.00 0.00 70 1023.2
20170330115504 38 91 2.0 6.0 0.00 0.00 0.00 70 1023.2
20170330114005 37 92 3.0 6.0 0.00 0.00 0.00 70 1022.8
20170330113504 37 93 3.0 6.0 0.00 0.00 0.00 70 1022.8
20170330113005 37 93 2.0 5.0 0.00 0.00 0.00 70 1022.8
20170330112504 37 94 4.0 7.0 0.00 0.00 0.00 69 1023.0
20170330112005 37 99 5.0 9.0 0.00 0.00 0.00 69 1023.0
20170330111504 37 97 2.0 6.0 0.00 0.00 0.00 69 1023.0
20170330111005 38 96 2.0 5.0 0.00 0.00 0.00 69 1023.3
20170330110504 38 96 2.0 7.0 0.00 0.00 0.00 69 1023.3
20170330110004 38 94 2.0 5.0 0.00 0.00 0.00 69 1023.3
20170330105504 38 94 2.0 6.0 0.00 0.00 0.00 68 1023.4
20170330105005 38 94 5.0 7.0 0.00 0.00 0.00 68 1023.5
20170330104504 38 101 4.0 7.0 0.00 0.00 0.00 68 1023.4
20170330104005 38 107 3.0 5.0 0.00 0.00 0.00 69 1023.4
20170330093504 38 83 2.0 6.0 0.00 0.00 0.00 67 1023.3
20170330093005 38 82 3.0 7.0 0.00 0.00 0.00 67 1023.4
20170330092505 38 84 3.0 9.0 0.00 0.00 0.00 66 1023.4
20170330092005 38 69 3.0 7.0 0.00 0.00 0.00 66 1023.7
20170330091504 38 85 3.0 8.0 0.00 0.00 0.00 67 1023.7
20170330091005 38 92 3.0 9.0 0.00 0.00 0.00 68 1023.7
20170330090504 38 77 2.0 5.0 0.00 0.00 0.00 69 1023.7
20170330090005 38 77 2.0 7.0 0.00 0.00 0.00 69 1023.7
20170330085505 38 77 3.0 5.0 0.00 0.00 0.00 70 1023.7
20170330085005 39 76 3.0 7.0 0.00 0.00 0.00 71 1023.8
20170330084504 39 76 2.0 5.0 0.00 0.00 0.00 71 1023.8
20170330084005 39 76 2.0 5.0 0.00 0.00 0.00 71 1023.9
20170330083505 39 76 3.0 7.0 0.00 0.00 0.00 72 1024.2
20170330083005 39 71 3.0 7.0 0.00 0.00 0.00 72 1024.2
20170330082504 39 69 2.0 5.0 0.00 0.00 0.00 74 1024.2
20170330082005 39 69 3.0 7.0 0.00 0.00 0.00 74 1024.2
20170330081504 39 61 2.0 5.0 0.00 0.00 0.00 75 1024.4
20170330081004 39 53 3.0 3.0 0.00 0.00 0.00 76 1024.5
20170330080504 39 53 3.0 5.0 0.00 0.00 0.00 77 1024.5
20170330080005 39 51 3.0 6.0 0.00 0.00 0.00 78 1024.7
20170330075504 39 50 2.0 6.0 0.00 0.00 0.00 78 1024.8
20170330075004 39 49 3.0 7.0 0.00 0.00 0.00 79 1024.9
20170330074505 39 49 3.0 5.0 0.00 0.00 0.00 80 1024.9
20170330074004 39 46 2.0 3.0 0.00 0.00 0.00 80 1024.9
20170330073504 39 46 2.0 3.0 0.00 0.00 0.00 79 1025.0
20170330064504 39 41 0.0 0.0 0.00 0.00 0.00 77 1024.4
20170330063505 39 41 0.0 0.0 0.00 0.00 0.00 76 1024.4
20170330063005 39 41 0.0 0.0 0.00 0.00 0.00 76 1024.4
20170330062505 40 41 0.0 0.0 0.00 0.00 0.00 75 1024.4
20170330062005 40 41 0.0 0.0 0.00 0.00 0.00 75 1024.4
20170330061504 39 41 0.0 0.0 0.00 0.00 0.00 75 1024.5
20170330061004 40 41 0.0 0.0 0.00 0.00 0.00 74 1024.5
20170330060505 40 41 0.0 0.0 0.00 0.00 0.00 74 1024.5
20170330060004 40 41 0.0 0.0 0.00 0.00 0.00 74 1024.5
20170330055505 40 41 0.0 0.0 0.00 0.00 0.00 73 1024.5
20170330055004 40 41 0.0 0.0 0.00 0.00 0.00 73 1024.5
20170330054504 40 41 0.0 0.0 0.00 0.00 0.00 73 1024.5
20170330054004 40 41 0.0 0.0 0.00 0.00 0.00 72 1024.4
20170330053505 40 41 0.0 0.0 0.00 0.00 0.00 72 1024.4
20170330053005 40 41 0.0 0.0 0.00 0.00 0.00 71 1024.4
20170330052504 40 41 0.0 0.0 0.00 0.00 0.00 72 1024.3
20170330052005 40 41 0.0 0.0 0.00 0.00 0.00 71 1024.3
20170330051504 40 41 0.0 0.0 0.00 0.00 0.00 71 1024.3
20170330051005 41 41 0.0 0.0 0.00 0.00 0.00 70 1023.6
20170330050504 41 41 0.0 0.0 0.00 0.00 0.00 69 1023.6
20170330050004 41 41 0.0 0.0 0.00 0.00 0.00 69 1023.6
20170330045504 41 41 0.0 0.0 0.00 0.00 0.00 70 1023.6
20170330045005 41 41 0.0 0.0 0.00 0.00 0.00 71 1023.4
20170330044504 41 41 0.0 0.0 0.00 0.00 0.00 73 1023.4
20170330044005 41 41 0.0 0.0 0.00 0.00 0.00 74 1023.4
20170330043504 41 41 0.0 0.0 0.00 0.00 0.00 75 1023.1
20170330043004 41 41 0.0 0.0 0.00 0.00 0.00 76 1023.4
20170330042005 40 41 0.0 0.0 0.00 0.00 0.00 77 1023.4
20170330040005 41 41 0.0 0.0 0.00 0.00 0.00 76 1023.6
20170330035504 41 41 0.0 0.0 0.00 0.00 0.00 76 1023.6
20170330035005 41 41 0.0 0.0 0.00 0.00 0.00 75 1023.6
20170330034504 41 41 0.0 0.0 0.00 0.00 0.00 74 1023.6
20170330034005 41 41 0.0 0.0 0.00 0.00 0.00 73 1023.6
20170330033505 41 41 0.0 0.0 0.00 0.00 0.00 73 1023.5
20170330033005 41 41 0.0 0.0 0.00 0.00 0.00 72 1023.8
20170330032504 41 41 0.0 0.0 0.00 0.00 0.00 71 1023.9
20170330032004 41 41 0.0 1.0 0.00 0.00 0.00 72 1023.9
20170330031504 41 41 0.0 0.0 0.00 0.00 0.00 72 1023.9
20170330031005 41 41 0.0 2.0 0.00 0.00 0.00 72 1023.9
20170330030505 41 41 1.0 2.0 0.00 0.00 0.00 72 1023.9
20170330030004 41 41 1.0 2.0 0.00 0.00 0.00 71 1023.9
20170330025504 41 41 0.0 2.0 0.00 0.00 0.00 72 1024.3
20170330025005 42 41 1.0 3.0 0.00 0.00 0.00 72 1024.3
20170330024504 42 41 2.0 3.0 0.00 0.00 0.00 71 1024.2
20170330024005 42 41 1.0 2.0 0.00 0.00 0.00 71 1024.2
20170330023504 42 41 1.0 2.0 0.00 0.00 0.00 71 1024.2
20170330023004 42 41 1.0 3.0 0.00 0.00 0.00 71 1024.5
20170330022504 42 41 1.0 2.0 0.00 0.00 0.00 71 1024.5
20170330022004 42 41 0.0 2.0 0.00 0.00 0.00 71 1024.6
20170330021504 42 41 1.0 2.0 0.00 0.00 0.00 71 1024.7
20170330021005 42 41 0.0 0.0 0.00 0.00 0.00 72 1024.7
20170330020504 42 41 0.0 1.0 0.00 0.00 0.00 71 1024.7
20170330000005 45 41 0.0 0.0 0.00 0.00 0.00 60 1024.9
20170329235504 45 41 0.0 0.0 0.00 0.00 0.00 60 1024.9
20170329235005 45 41 0.0 0.0 0.00 0.00 0.00 61 1024.9
20170329234505 45 41 0.0 0.0 0.00 0.00 0.00 60 1024.9
20170329234005 45 41 0.0 0.0 0.00 0.00 0.00 61 1024.8
20170329233504 45 41 0.0 0.0 0.00 0.00 0.00 61 1024.8
20170329233005 45 41 0.0 0.0 0.00 0.00 0.00 61 1024.7
20170329232505 45 41 0.0 2.0 0.00 0.00 0.00 61 1024.7
20170329232004 45 41 1.0 2.0 0.00 0.00 0.00 60 1024.6
20170329231505 45 41 0.0 2.0 0.00 0.00 0.00 61 1024.6
20170329231005 45 41 0.0 2.0 0.00 0.00 0.00 61 1024.6
20170329230504 45 41 0.0 3.0 0.00 0.00 0.00 60 1024.5
20170329221005 46 40 3.0 6.0 0.00 0.00 0.00 60 1024.3
20170329220505 47 40 2.0 6.0 0.00 0.00 0.00 60 1024.3
20170329220008 47 40 3.0 7.0 0.00 0.00 0.00 58 1024.3
20170329215005 47 44 2.0 6.0 0.00 0.00 0.00 57 1024.1
20170329214504 47 44 3.0 6.0 0.00 0.00 0.00 57 1024.2
20170329214006 47 44 2.0 3.0 0.00 0.00 0.00 58 1023.9
20170329213005 48 44 3.0 5.0 0.00 0.00 0.00 57 1023.9
20170329212505 48 44 3.0 6.0 0.00 0.00 0.00 55 1023.9
20170329212005 49 41 2.0 5.0 0.00 0.00 0.00 55 1023.9
20170329211005 50 38 2.0 5.0 0.00 0.00 0.00 53 1023.9
20170329210005 50 38 5.0 8.0 0.00 0.00 0.00 56 1023.9
20170329205504 51 60 2.0 3.0 0.00 0.00 0.00 52 1023.9
20170329205004 51 60 1.0 3.0 0.00 0.00 0.00 55 1023.9
20170329204504 50 60 1.0 3.0 0.00 0.00 0.00 55 1024.0
20170329204004 50 60 1.0 3.0 0.00 0.00 0.00 56 1024.2
20170329203504 50 60 2.0 3.0 0.00 0.00 0.00 56 1024.2
20170329203005 50 60 1.0 3.0 0.00 0.00 0.00 58 1024.3